Regional Weather Roundup
Issued by NWS

Home | Current Version | Previous Version | Graphics & Text | Print | Product List | Glossary On
Versions: 1 2 3 4 5 6 7 8 9 10 11 12 13 14 15 16 17 18 19 20 21 22 23 24 25 26 27 28 29 30 31 32 33 34 35 36 37 38 39 40 41 42 43 44 45 46 47 48 49 50
000
ASUS43 KLMK 251610
RWRKY
KENTUCKY REGIONAL WEATHER ROUNDUP
NATIONAL WEATHER SERVICE LOUISVILLE KY
1200 PM EDT THU AUG 25 2016

NOTE "FAIR" INDICATES FEW OR NO CLOUDS BELOW 12,000 FEET
WITH NO SIGNIFICANT WEATHER AND/OR OBSTRUCTIONS TO VISIBILITY.

KYZ001>023-026-027-061>063-070>075-251700-
WESTERN AND SOUTH CENTRAL KENTUCKY

CITY           SKY/WX    TMP DP  RH WIND       PRES   REMARKS
PADUCAH        SUNNY     88  73  61 W9G17     30.11S HX  95
HENDERSON      SUNNY     90  73  58 SW6       30.08S HX  98
OWENSBORO      SUNNY     90  76  63 SW9       30.11S HX 101
HOPKINSVILLE   MOSUNNY   88  74  63 W9        30.14S HX  97
BOWLING GREEN  MOSUNNY   89  75  63 W9        30.14S HX  99
GLASGOW        PTSUNNY   87  74  66 SW5       30.15F HX  95
$$

KYZ024-025-028>034-038-045-046-053-251700-
NORTH CENTRAL KENTUCKY

CITY           SKY/WX    TMP DP  RH WIND       PRES   REMARKS
LOUISVILLE/SDF MOSUNNY   87  73  62 W8        30.10S HX  94
LOUISVILLE/LOU MOSUNNY   88  73  61 SW9       30.11S HX  95
FORT KNOX      MOSUNNY   87  74  64 SW10      30.11S HX  95
$$

KYZ035>037-039>044-047>052-055>060-089>105-251700-
NORTHEAST KENTUCKY

CITY           SKY/WX    TMP DP  RH WIND       PRES   REMARKS
LEXINGTON      SUNNY     85  72  65 SW10      30.14S HX  91
COVINGTON      CLOUDY    83  76  79 W7        30.10S HX  91
FRANKFORT      PTSUNNY   89  74  60 SW9       30.11S HX  98
$$

KYZ054-064>069-076>088-106>120-251700-
SOUTHEAST KENTUCKY

CITY           SKY/WX    TMP DP  RH WIND       PRES   REMARKS
JACKSON        MOSUNNY   84  74  71 CALM      30.19S HX  91
LONDON         MOSUNNY   84  71  65 SW8       30.19F
SOMERSET       SUNNY     82  72  69 W6        30.19F
MIDDLESBORO    PTSUNNY   85  74  69 SW5       30.21S HX  91
MONTICELLO     MOSUNNY  N/A N/A N/A W9G21     30.20S
$$




USA.gov is the U.S. government's official web portal to all federal, state and local government web resources and services.